Tracking 35275 objects as of 8-Sep-2026
HD Live streaming from Space Station
objects crossing your sky now

STARLINK-3668

Track STARLINK-3668 now!
10-day predictions
STARLINK-3668 is classified as:


NORAD ID: 52002
Int'l Code: 2022-025AY
Launch date: March 9, 2022
Source: United States (US)
Launch site: AIR FORCE EASTERN TEST RANGE (AFETR)
Your satellite tracking list
Your tracking list is empty




NASA's NSSDC Master Catalog

Two Line Element Set (TLE):
1 52002U 22025AY  26250.69084775 -.00068378  00000-0 -20036-2 0  9998
2 52002  53.1609 273.4945 0001387  51.3018 308.8109 15.34825272248514
Source of the keplerian elements: AFSPC